Weather History for Tri-Cities, TN

Change the Weather History Date:

Wednesday, January 29, 2003

  Actual Average Record
Temperature  
Mean Temperature 36 °F 36 °F  
Max Temperature 39 °F 46 °F 72 °F (1947)
Min Temperature 32 °F 26 °F -8 °F (1940)
Degree Days  
Heating Degree Days 30 29  
Month to date heating degree days 867  
Since 1 July heating degree days 2596  
Cooling Degree Days 0 0  
Month to date cooling degree days 0  
Year to date cooling degree days 0  
Moisture  
Dew Point 36 °F    
Average Humidity 99    
Maximum Humidity 100    
Minimum Humidity 93    
Precipitation  
Precipitation 1.01 in 0.11 in 1.28 in (1957)
Month to date precipitation 3.14  
Year to date precipitation 3.14  
Snow  
Snow 0.00 in 0.20 in - ()
Month to date snowfall 4.4  
Since 1 July snowfall 7.1  
Snow Depth -    
Sea Level Pressure  
Sea Level Pressure 30.13 in    
Wind  
Wind Speed 1 mph (NNE)    
Max Wind Speed 6 mph    
Max Gust Speed -    
Visibility 2 miles    
Events Fog , Rain    
T = Trace of Precipitation, MM = Missing Value Source: NWS Daily Summary

Daily Weather History Graph

Daily Weather History Graph

Search for Another Location

Airport:

Trip Planner

Search our weather history database for the weather conditions in past years. The results will help you decide how hot, cold, wet, or windy it might be!

Date:

Astronomy

Jan. 29, 2003 Rise Set
Actual Time 7:33 AM EST 5:52 PM EST
Civil Twilight 7:06 AM EST 6:19 PM EST
Nautical Twilight 6:35 AM EST 6:50 PM EST
Astronomical Twilight 6:04 AM EST 7:20 PM EST
Moon 5:27 AM EST (1/29) 3:02 PM EST (1/29)
Length of Visible Light 11h 13m
Length of Day
10h 18m
Waning Crescent, 8% of the Moon is Illuminated
Jan 29
Waning Crescent
Feb 1
New
Feb 9
First Quarter
Feb 16
Full
Feb 23
Last Quarter

Hourly Weather History & Observations

Time (EST) Temp. Windchill Dew Point Humidity Pressure Visibility Wind Dir Wind Speed Gust Speed Precip Events Conditions
12:32 AM 32.0 °F - 30.2 °F 93% 30.17 in 2.0 mi Calm Calm - 0.01 in Rain Light Rain
12:43 AM 32.0 °F - 32.0 °F 100% 30.16 in 2.0 mi Calm Calm - 0.01 in Rain Light Rain
12:53 AM 32.0 °F - 32.0 °F 100% 30.19 in 2.0 mi Calm Calm - 0.03 in Rain Light Rain
1:00 AM 32.0 °F - 32.0 °F 100% 30.16 in 0.8 mi Calm Calm - 0.00 in Rain Light Rain
1:09 AM 32.0 °F - 32.0 °F 100% 30.15 in 1.0 mi Calm Calm - 0.01 in Rain Light Rain
1:24 AM 32.0 °F 28.7 °F 32.0 °F 100% 30.16 in 1.5 mi North 3.5 mph - 0.02 in Rain Light Rain
1:39 AM 33.8 °F - 32.0 °F 93% 30.15 in 2.0 mi Calm Calm - 0.02 in Rain Light Rain
1:53 AM 33.1 °F - 32.0 °F 96% 30.18 in 2.5 mi Calm Calm - 0.02 in Rain Light Rain
2:53 AM 33.1 °F - 32.0 °F 96% 30.16 in 2.0 mi Calm Calm - 0.04 in Rain Light Rain
3:53 AM 33.1 °F - 33.1 °F 100% 30.14 in 2.0 mi Calm Calm - 0.00 in Rain Light Rain
4:53 AM 33.1 °F - 33.1 °F 100% 30.12 in 1.2 mi Calm Calm - 0.03 in Rain Light Rain
5:33 AM 33.8 °F - 33.8 °F 100% 30.09 in 1.2 mi Calm Calm - 0.03 in Rain Rain
5:53 AM 34.0 °F 31.0 °F 33.1 °F 96% 30.12 in 1.5 mi North 3.5 mph - 0.06 in Rain Heavy Rain
6:02 AM 33.8 °F 30.8 °F 33.8 °F 100% 30.08 in 1.0 mi NNE 3.5 mph - 0.04 in Rain Rain
6:53 AM 34.0 °F - 34.0 °F 100% 30.12 in 0.8 mi Calm Calm - 0.17 in Rain Rain
6:57 AM 33.8 °F - 33.8 °F 100% 30.10 in 0.8 mi Calm Calm - 0.02 in Rain Light Rain
7:46 AM 33.8 °F - 33.8 °F 100% 30.10 in 0.5 mi Calm Calm - 0.13 in Fog , Rain Light Rain
7:53 AM 34.0 °F - 34.0 °F 100% 30.12 in 0.5 mi Calm Calm - 0.14 in Fog , Rain Light Rain
8:53 AM 35.1 °F - 34.0 °F 96% 30.14 in 0.5 mi Calm Calm - 0.10 in Fog , Rain Rain
9:53 AM 36.0 °F 33.3 °F 35.1 °F 97% 30.13 in 0.8 mi North 3.5 mph - 0.12 in Rain Light Rain
10:53 AM 37.9 °F - 37.0 °F 97% 30.13 in 2.0 mi Calm Calm - 0.06 in Rain Light Rain
11:19 AM 37.4 °F - 37.4 °F 100% 30.10 in 1.0 mi Calm Calm - 0.03 in Rain Light Rain
11:53 AM 37.0 °F - 37.0 °F 100% 30.12 in 0.8 mi Calm Calm - 0.07 in Rain Light Rain
12:14 PM 37.4 °F - 37.4 °F 100% 30.08 in 0.8 mi Calm Calm - 0.03 in Rain Light Rain
12:21 PM 37.4 °F - 37.4 °F 100% 30.08 in 1.0 mi Calm Calm - 0.03 in Rain Light Rain
12:53 PM 37.9 °F - 37.9 °F 100% 30.09 in 1.0 mi Calm Calm - 0.07 in Rain Light Rain
1:53 PM 39.0 °F - 39.0 °F 100% 30.09 in 1.0 mi Calm Calm - 0.03 in Rain Light Rain
2:36 PM 39.2 °F - 39.2 °F 100% 30.07 in 0.8 mi Calm Calm - 0.02 in Rain Light Rain
2:53 PM 39.9 °F 37.8 °F 39.9 °F 100% 30.09 in 0.8 mi SE 3.5 mph - 0.03 in Rain Light Rain
3:09 PM 39.2 °F - 39.2 °F 100% 30.07 in 0.2 mi Calm Calm - 0.00 in Fog , Rain Light Rain
3:40 PM 39.2 °F - 39.2 °F 100% 30.08 in 0.2 mi Calm Calm - 0.02 in Fog Fog
3:53 PM 39.9 °F - 39.9 °F 100% 30.10 in 0.5 mi Calm Calm - 0.02 in   Light Drizzle
4:16 PM 39.2 °F - 39.2 °F 100% 30.09 in 0.8 mi Calm Calm - 0.00 in Rain Light Rain
4:53 PM 39.9 °F - 39.9 °F 100% 30.12 in 0.8 mi Calm Calm - 0.01 in   Overcast
5:32 PM 39.2 °F - 39.2 °F 100% 30.11 in 0.8 mi Calm Calm - N/A   Overcast
5:53 PM 39.0 °F - 39.0 °F 100% 30.14 in 0.8 mi Calm Calm - 0.00 in Rain Light Rain
6:53 PM 39.9 °F - 39.9 °F 100% 30.17 in 1.0 mi Calm Calm - 0.00 in   Overcast
7:14 PM 39.2 °F 37.0 °F 39.2 °F 100% 30.14 in 2.0 mi North 3.5 mph - N/A   Overcast
7:36 PM 39.2 °F 37.0 °F 39.2 °F 100% 30.14 in 3.0 mi NNE 3.5 mph - N/A   Overcast
7:53 PM 39.9 °F 35.8 °F 39.9 °F 100% 30.17 in 4.0 mi North 5.8 mph - N/A   Overcast
8:53 PM 39.9 °F - 39.0 °F 97% 30.17 in 5.0 mi Calm Calm - 0.00 in Rain Light Rain
9:53 PM 39.0 °F - 39.0 °F 100% 30.18 in 4.0 mi Calm Calm - 0.01 in   Overcast
10:33 PM 39.2 °F 37.0 °F 39.2 °F 100% 30.16 in 8.0 mi North 3.5 mph - N/A   Overcast
10:53 PM 39.9 °F 35.8 °F 37.9 °F 93% 30.18 in 9.0 mi North 5.8 mph - N/A   Overcast
11:13 PM 39.2 °F 35.0 °F 37.4 °F 93% 30.16 in 10.0 mi North 5.8 mph - N/A   Overcast
11:53 PM 39.0 °F 35.7 °F 37.0 °F 93% 30.18 in 10.0 mi NNE 4.6 mph - N/A   Overcast